Location: St. Louis
(38.6270°N, 90.1994°W)
Time: 05:03:28
(UTC-05:00)

RS-15 - Pass Details

Date: 27 January 2022
Orbit: 1881 x 2163 km, 64.8° (Epoch: 20 May)

Event Time Altitude Azimuth Distance (km) Brightness Sun altitude
Exits shadow 04:02:07 39° 198° (SSW) 2,917 8.6 -36.8°
Drops below altitude 10° 04:09:05 10° 176° (S) 4,579 9.9 -35.5°
Sets 04:12:32 0° 172° (S) 5,548 10.5 -34.8°
